Overview Statistics Trail Chart Weather Telemetry Raw packets
 

This is the latest recevied weather packets stored in our database for station/object AB4BJ-10. If no packets are shown the sender has not sent any weather packets the latest 10 day(s).

<< 93 94 95 96 97 98 99 >>
Time Temp. Humidity Pressure Rain* Wind** Luminosity Snow
1787942591 31.67° C 60% 1012.8 hPa 0 mm - - -
1787942294 31.11° C 61% 1012.9 hPa 0 mm - - -
1787941994 31.11° C 60% 1013 hPa 0 mm - - -
1787941690 31.11° C 60% 1013 hPa 0 mm - - -
1787941089 31.11° C 61% 1013 hPa 0 mm - - -
1787940880 30.56° C 64% 1013 hPa 0 mm - - -
1787940789 30.56° C 64% 1013 hPa 0 mm - - -
1787940490 31.11° C 64% 1013 hPa 0 mm - - -
1787940338 31.11° C 63% 1013.1 hPa 0 mm - - -
1787940190 31.11° C 63% 1013.1 hPa 0 mm - - -
1787939888 30.56° C 67% 1013.2 hPa 0 mm - - -
1787939588 30° C 67% 1013.2 hPa 0 mm - - -
1787939288 30.56° C 67% 1013.2 hPa 0 mm - - -
1787938987 30° C 70% 1013.3 hPa 0 mm - - -
1787938689 30.56° C 69% 1013.3 hPa 0 mm - - -
1787938387 30° C 72% 1013.3 hPa 0 mm - - -
1787938087 30° C 73% 1013.4 hPa 0 mm - - -
1787937789 29.44° C 75% 1013.3 hPa 0 mm - - -
1787937486 29.44° C 76% 1013.3 hPa 0 mm - - -
1787937187 29.44° C 76% 1013.4 hPa 0 mm - - -
1787936585 29.44° C 72% 1013.5 hPa 0 mm - - -
1787936285 29.44° C 74% 1013.5 hPa 0 mm - - -
1787935684 28.89° C 73% 1013.6 hPa 0 mm - - -
1787935385 28.89° C 74% 1013.7 hPa 0 mm - - -
1787934880 28.89° C 74% 1013.6 hPa 0 mm - - -

* Rain latest hour (hover to see other rain measurements)
** Current wind speed in m/s (hover to see current wind gust speed)